Location: Lynch Observatory
(39.9540°N, 75.1861°W)
Time: 20:32:52
(UTC-05:00)

Tiangong - Visible Passes

Search period start: 28 November 2023 00:00
Search period end: 08 December 2023 00:00
Orbit: 374 x 384 km, 41.5° (Epoch: 28 November)

Date Brightness Start Highest point End Pass type
(mag) Time Alt. Az. Time Alt. Az. Time Alt. Az.
28 Nov -2.3 18:10:50 10° WNW 18:14:00 87° NNE 18:14:16 73° E visible
29 Nov -2.1 17:09:22 10° WNW 17:12:31 69° N 17:15:40 10° E visible
29 Nov -0.1 18:46:10 10° W 18:48:03 29° WSW 18:48:03 29° WSW visible
30 Nov -1.9 17:44:34 10° W 17:47:42 69° SSW 17:49:45 19° ESE visible
01 Dec -0.3 18:19:52 10° W 18:22:37 27° SSW 18:23:40 22° S visible
02 Dec -1.1 17:17:59 10° W 17:21:01 46° SSW 17:24:03 10° SE visible
03 Dec 0.7 17:53:28 10° WSW 17:55:39 17° SSW 17:57:48 10° SSE visible
05 Dec 1.4 17:27:39 10° SW 17:28:17 10° SW 17:28:54 10° SSW visible
